Grand Isle Weather Center

Moon Phase Calendar



Online Cameras

 


      

Current Conditions in Grand Isle
8/15/2022 11:38:19 PM

82°F
Feels Like 88
Clear
Humidity
78%
Pressure
29.91"
Wind
8.1 mph (WSW)
Dew Point
74°F
UV Index
0/10 (Low)
Visibility
6 mi

Hourly Forecast

Date & Time Mon, Aug 15
11:00 PM
Tue, Aug 16
12:00 AM
Tue, Aug 16
1:00 AM
Tue, Aug 16
2:00 AM
Tue, Aug 16
3:00 AM
Tue, Aug 16
4:00 AM
Tue, Aug 16
5:00 AM
Tue, Aug 16
6:00 AM
Tue, Aug 16
7:00 AM
Tue, Aug 16
8:00 AM
Tue, Aug 16
9:00 AM
Tue, Aug 16
10:00 AM
Tue, Aug 16
11:00 AM
Tue, Aug 16
12:00 PM
Tue, Aug 16
1:00 PM
Tue, Aug 16
2:00 PM
Tue, Aug 16
3:00 PM
Tue, Aug 16
4:00 PM
Tue, Aug 16
5:00 PM
Tue, Aug 16
6:00 PM
Tue, Aug 16
7:00 PM
Tue, Aug 16
8:00 PM
Tue, Aug 16
9:00 PM
Tue, Aug 16
10:00 PM
Tue, Aug 16
11:00 PM
Wed, Aug 17
12:00 AM
Wed, Aug 17
1:00 AM
Wed, Aug 17
2:00 AM
Wed, Aug 17
3:00 AM
Wed, Aug 17
4:00 AM
Wed, Aug 17
5:00 AM
Wed, Aug 17
6:00 AM
Wed, Aug 17
7:00 AM
Wed, Aug 17
8:00 AM
Wed, Aug 17
9:00 AM
Wed, Aug 17
10:00 AM
Wed, Aug 17
11:00 AM
Wed, Aug 17
12:00 PM
Wed, Aug 17
1:00 PM
Wed, Aug 17
2:00 PM
Wed, Aug 17
3:00 PM
Wed, Aug 17
4:00 PM
Wed, Aug 17
5:00 PM
Wed, Aug 17
6:00 PM
Wed, Aug 17
7:00 PM
Wed, Aug 17
8:00 PM
Wed, Aug 17
9:00 PM
Wed, Aug 17
10:00 PM
Condition
Clear

Clear

Clear

Clear

Clouds

Clouds

Clouds

Clouds

Rain

Rain

Rain

Clouds

Clouds

Clouds

Clouds

Clouds

Clouds

Clouds

Clouds

Clouds

Clouds

Rain

Clouds

Clouds

Clouds

Rain

Rain

Clouds

Clouds

Rain

Clouds

Rain

Rain

Clouds

Clouds

Clouds

Clouds

Clouds

Clouds

Rain

Rain

Rain

Clouds

Clouds

Rain

Rain

Rain

Clouds
Temperature 82°F82°F82°F82°F81°F81°F81°F81°F80°F81°F81°F83°F85°F86°F87°F88°F88°F89°F89°F86°F84°F83°F83°F82°F82°F81°F80°F80°F80°F80°F80°F80°F80°F81°F83°F84°F85°F86°F87°F85°F87°F87°F86°F85°F83°F82°F82°F82°F
Feels Like 88°F88°F88°F88°F87°F87°F87°F87°F85°F86°F87°F91°F94°F96°F98°F98°F98°F99°F101°F97°F93°F91°F90°F90°F90°F88°F85°F80°F85°F85°F86°F85°F85°F87°F90°F92°F94°F96°F98°F93°F97°F98°F96°F95°F92°F89°F90°F90°F
Cloudiness 1%1%1%4%31%54%74%79%83%100%100%99%79%73%63%13%21%30%38%36%33%97%98%99%99%99%99%100%84%89%72%77%73%30%34%31%28%27%27%57%75%82%86%89%89%19%56%66%
Visibility 6 mi6 mi6 mi6 mi6 mi6 mi6 mi6 mi6 mi6 mi5 mi6 mi6 mi6 mi6 mi6 mi6 mi6 mi6 mi6 mi6 mi6 mi6 mi6 mi6 mi6 mi6 mi6 mi6 mi6 mi6 mi6 mi6 mi6 mi6 mi6 mi6 mi6 mi6 mi6 mi6 mi6 mi6 mi6 mi6 mi6 mi6 mi6 mi
Precipitation 0%0%0%0%0%0%0%0%32%44%56%56%52%52%52%0%0%0%0%0%0%52%40%59%71%79%83%24%36%48%52%56%53%20%4%0%0%0%0%28%44%44%36%44%44%53%53%52%
Humidity 77%78%78%78%79%80%81%82%83%82%81%77%73%71%71%68%65%64%68%72%76%79%81%81%82%83%84%84%84%85%85%86%86%83%78%74%72%71%71%68%71%70%72%74%78%80%81%81%
Dew Point 74°F74°F74°F74°F74°F75°F75°F75°F75°F75°F75°F75°F75°F76°F76°F76°F75°F75°F77°F76°F76°F76°F76°F76°F76°F76°F75°F75°F75°F75°F75°F75°F75°F75°F75°F75°F75°F76°F77°F74°F76°F76°F76°F76°F76°F76°F76°F76°F
Pressure 29.91"29.91"29.91"29.91"29.88"29.88"29.88"29.91"29.94"29.97"29.97"29.97"29.97"29.94"29.94"29.94"29.91"29.91"29.88"29.88"29.88"29.91"29.91"29.94"29.94"29.94"29.94"29.91"29.91"29.91"29.91"29.94"29.97"29.97"30"30"30"29.97"29.97"29.94"29.94"29.91"29.91"29.88"29.91"29.91"29.91"29.91"
Wind Speed 9.4 mph8.1 mph8.9 mph8.2 mph9.5 mph10.8 mph10.8 mph10.6 mph10.1 mph8.9 mph8.4 mph8.2 mph6.7 mph4.7 mph1.8 mph2.3 mph4.8 mph7.7 mph10.2 mph13.7 mph14.8 mph12.7 mph14.8 mph10.8 mph7.7 mph8.4 mph10.4 mph9.9 mph9.8 mph9.9 mph9.5 mph10.2 mph9.8 mph10.2 mph10.8 mph11 mph9.2 mph6.8 mph4.6 mph3.6 mph6.2 mph11.6 mph15.2 mph15.1 mph15.4 mph15.3 mph15.2 mph13.4 mph
Wind
Direction
252°
WSW
254°
WSW
257°
WSW
254°
WSW
262°
W
251°
WSW
250°
WSW
262°
W
298°
WNW
302°
WNW
298°
WNW
299°
WNW
302°
WNW
306°
NW
300°
WNW
192°
SSW
213°
SSW
239°
WSW
248°
WSW
239°
WSW
245°
WSW
245°
WSW
238°
WSW
257°
WSW
268°
W
309°
NW
293°
WNW
274°
W
278°
W
278°
W
272°
W
287°
WNW
293°
WNW
281°
W
279°
W
289°
WNW
298°
WNW
299°
WNW
286°
WNW
262°
W
227°
SW
233°
SW
234°
SW
233°
SW
238°
WSW
242°
WSW
243°
WSW
247°
WSW

Daily Forecast

Date High Low Precip. Humidity
Today
Aug 15

Rain
86 °F
81 °F
51%
66%
Tuesday
Aug 16

Rain
89 °F
80 °F
71%
71%
Wednesday
Aug 17

Rain
87 °F
80 °F
83%
71%
Thursday
Aug 18

Rain
86 °F
79 °F
91%
72%
Friday
Aug 19

Rain
84 °F
80 °F
100%
72%
Saturday
Aug 20

Rain
83 °F
81 °F
91%
76%
Sunday
Aug 21

Clouds
83 °F
81 °F
0%
74%
Monday
Aug 22

Clouds
83 °F
81 °F
0%
79%
Tuesday
Aug 23

Rain
83 °F
81 °F
63%
79%
Wednesday
Aug 24

Rain
82 °F
81 °F
100%
77%
Thursday
Aug 25

Rain
82 °F
81 °F
100%
73%
Friday
Aug 26

Rain
83 °F
80 °F
100%
78%
Saturday
Aug 27

Rain
84 °F
81 °F
44%
76%
Sunday
Aug 28

Rain
83 °F
81 °F
39%
79%
Monday
Aug 29

Rain
82 °F
81 °F
86%
80%
Tuesday
Aug 30

Rain
82 °F
80 °F
84%
77%

Temperature 8-14 Day Outlook



Precipitation 8-14 Day Outlook




Quick Links
Grand Isle News
Grand Isle Photos
Grand Isle Videos




About Us
Contact Us
Site Map
Search Site
Advertise With Us
   
GrandIsle.USCoast.info
THE GRAND ISLE WEBSITE

Copyright 2022, Coastal Town
Privacy    |    Legal